Location: Lecco
(45.8566°N, 9.3977°E)
Time: 04:54:29
(UTC+02:00)

Transit 4A - Pass Details

Date: 19 August 2020
Orbit: 863 x 982 km, 66.8° (Epoch: 23 September)

Event Time Altitude Azimuth Distance (km) Brightness Sun altitude
Rises 12:26:36 0° 302° (WNW) 3,589 10.7 54.4°
Reaches altitude 10° 12:31:48 10° 339° (NNW) 2,681 10.1 54.8°
Maximum altitude 12:33:13 11° 352° (N) 2,637 10.1 54.9°
Drops below altitude 10° 12:34:37 10° 5° (N) 2,698 10.1 55.0°
Sets 12:39:57 0° 42° (NE) 3,672 10.9 55.3°
